sat.trackr.live / text

‹ back to catalog

STARLINK-31851

NORAD 59844 · 2024-097K

PAYLOAD ACTIVE UNKNOWN

§ Identity

Operator
Country
US
Launch date
2024-05-23
Launch site
AFETR
Launch vehicle
Mass (kg)
RCS (m²)

Purposes: comms

External: N2YO · Heavens-Above · Gunter

§ Orbital elements

Epoch: 2026-05-25T03:47:54.691296Z

Period
94.27 min
Inclination
43.0024°
Eccentricity
0.0001606
Mean motion
15.27576432 rev/d
Perigee alt
482.0 km
Apogee alt
484.2 km
Semi-major
6,861.2 km
B*
2.4170e-5
RAAN
202.3418°
Arg perigee
268.9798°
Mean anomaly
91.0870°
Rev number
11,361

§ Raw data

STARLINK-318511 59844U 24097K   26145.15827189  .00000403  00000+0  24170-4 0  99952 59844  43.0024 202.3418 0001606 268.9798  91.0870 15.27576432113616

JSON: /api/v1/satellites/59844 · /tle

For live sub-satellite position, see the globe view (requires WebGL).

§ Visibility from observer

Set your observer location to see the next 7 days of passes ≥ 10°. The values pass through the URL so the page stays shareable.

No JS? Fill the form by hand. The geolocation button needs JavaScript.